GW1372 Weather Reports


time (UTC)temp
C
wind
direction
speed
KPH
gust
KPH
rain 1hr
cm
rain 24hr
cm
rain mn
cm
humidity
%
barometer
mb
20260505091004 14 263 1.6 3.2 0.00 0.00 0.00 78 1011.4
20260505090005 14 217 1.6 3.2 0.00 0.00 0.00 77 1011.4
20260505084004 14 236 1.6 3.2 0.00 0.00 0.00 77 1011.1
20260505083005 14 4 0.0 3.2 0.00 0.00 0.00 76 1011.1
20260505082004 14 219 0.0 3.2 0.00 0.00 0.00 76 1011.0
20260505081004 14 268 1.6 3.2 0.00 0.00 0.00 76 1010.9
20260505080004 15 194 1.6 4.8 0.00 0.00 0.00 76 1010.8
20260505075005 15 213 1.6 4.8 0.00 0.00 0.00 75 1010.8
20260505074004 15 316 1.6 4.8 0.00 0.00 0.00 75 1010.7
20260505072005 15 218 0.0 4.8 0.00 0.00 0.00 74 1010.5
20260505065005 16 212 0.0 3.2 0.00 0.00 0.00 71 1010.2
20260505064004 16 28 1.6 1.6 0.00 0.00 0.00 70 1010.0
20260505063004 16 157 0.0 1.6 0.00 0.00 0.00 70 1009.9
20260505060004 17 235 0.0 3.2 0.00 0.00 0.00 67 1009.6
20260505055005 17 259 1.6 3.2 0.00 0.00 0.00 66 1009.6
20260505054005 17 221 0.0 3.2 0.00 0.00 0.00 64 1009.6
20260505053004 18 265 0.0 3.2 0.00 0.00 0.00 63 1009.4
20260505052005 18 209 0.0 4.8 0.00 0.00 0.00 62 1009.3
20260505041005 21 273 1.6 8.0 0.00 0.00 0.00 55 1008.3
20260505034005 22 298 1.6 9.7 0.00 0.00 0.00 50 1007.8
20260505033005 22 193 1.6 3.2 0.00 0.00 0.00 48 1007.6
20260505032005 23 246 1.6 4.8 0.00 0.00 0.00 48 1007.5
20260505031005 23 212 0.0 3.2 0.00 0.00 0.00 47 1007.3
20260505025004 24 5 0.0 1.6 0.00 0.00 0.00 44 1007.3
20260505024005 25 219 0.0 3.2 0.00 0.00 0.00 43 1007.1
20260505022004 25 250 0.0 3.2 0.00 0.00 0.00 40 1007.2
20260505021006 26 282 0.0 4.8 0.00 0.00 0.00 39 1007.2
20260505020004 26 251 0.0 4.8 0.00 0.00 0.00 36 1007.1
20260505015005 26 178 0.0 1.6 0.00 0.00 0.00 34 1007.2
20260505014005 26 304 0.0 3.2 0.00 0.00 0.00 33 1007.2
20260505012004 26 263 1.6 3.2 0.00 0.00 0.00 33 1007.3
20260505011004 26 199 3.2 8.0 0.00 0.00 0.00 32 1007.3
20260505010005 26 219 0.0 8.0 0.00 0.00 0.00 31 1007.4
20260505005004 26 255 0.0 3.2 0.00 0.00 0.00 32 1007.4
20260505004005 26 347 1.6 4.8 0.00 0.00 0.00 32 1007.4
20260505003004 26 199 0.0 4.8 0.00 0.00 0.00 31 1007.4
20260505001005 26 230 3.2 4.8 0.00 0.00 0.00 31 1007.5
20260505000005 26 199 1.6 4.8 0.00 0.00 0.00 29 1007.6
20260504235004 26 207 1.6 3.2 0.00 0.00 0.00 29 1007.6
20260504234004 26 229 0.0 3.2 0.00 0.00 0.00 30 1007.7
20260504233004 26 269 1.6 8.0 0.00 0.00 0.00 29 1007.7
20260504232005 26 260 1.6 8.0 0.00 0.00 0.00 29 1007.7
20260504231004 26 268 1.6 4.8 0.00 0.00 0.00 29 1007.7
20260504230005 26 189 3.2 8.0 0.00 0.00 0.00 28 1007.8
20260504223004 26 231 0.0 8.0 0.00 0.00 0.00 30 1008.1
20260504222005 26 273 1.6 8.0 0.00 0.00 0.00 31 1008.3
20260504221004 26 220 1.6 8.0 0.00 0.00 0.00 30 1008.4
20260504220005 26 269 1.6 8.0 0.00 0.00 0.00 34 1008.5
20260504215005 26 192 4.8 8.0 0.00 0.00 0.00 32 1008.6
20260504212005 27 198 1.6 8.0 0.00 0.00 0.00 29 1008.6
20260504205005 26 198 1.6 4.8 0.00 0.00 0.00 30 1008.8
20260504204005 27 221 1.6 3.2 0.00 0.00 0.00 29 1008.8
20260504201005 26 278 1.6 4.8 0.00 0.00 0.00 30 1008.8
20260504200005 26 255 1.6 8.0 0.00 0.00 0.00 30 1008.8
20260504195005 26 167 1.6 3.2 0.00 0.00 0.00 32 1008.8
20260504194005 26 318 3.2 4.8 0.00 0.00 0.00 32 1008.8
20260504193004 26 150 1.6 4.8 0.00 0.00 0.00 31 1008.9
20260504192004 26 56 3.2 4.8 0.00 0.00 0.00 34 1008.9
20260504191004 26 202 1.6 4.8 0.00 0.00 0.00 33 1009.1
20260504190005 26 226 0.0 4.8 0.00 0.00 0.00 34 1009.1
20260504185005 26 58 1.6 3.2 0.00 0.00 0.00 33 1009.2
20260504183005 25 179 0.0 4.8 0.00 0.00 0.00 37 1009.2
20260504182004 25 234 1.6 4.8 0.00 0.00 0.00 38 1009.3
20260504175004 23 229 1.6 3.2 0.00 0.00 0.00 40 1009.4
20260504174004 23 225 1.6 3.2 0.00 0.00 0.00 41 1009.4
20260504173006 22 245 1.6 4.8 0.00 0.00 0.00 42 1009.3
20260504172004 22 160 1.6 3.2 0.00 0.00 0.00 41 1009.3
20260504171005 22 222 1.6 3.2 0.00 0.00 0.00 45 1009.3